This is the latest recevied weather packets stored in our database for station/object KD9JB-1. If no packets are shown the sender has not sent any weather packets the latest 10 day(s).
| Time | Temp. | Humidity | Pressure | Rain* | Wind** | Luminosity | Snow |
|---|---|---|---|---|---|---|---|
| 1777735603 | 9.44° C | 83% | 1019.9 hPa | 0.25 mm | - | - | - |
| 1777735303 | 9.44° C | 83% | 1019.8 hPa | 0 mm | - | - | - |
| 1777735003 | 8.89° C | 86% | 1019.8 hPa | 0 mm | - | - | - |
| 1777734703 | 8.89° C | 85% | 1019.8 hPa | 0 mm | - | - | - |
| 1777734403 | 8.89° C | 87% | 1019.9 hPa | 0 mm | - | - | - |
| 1777734103 | 8.33° C | 86% | 1019.9 hPa | 0 mm | - | - | - |
| 1777733803 | 8.33° C | 85% | 1019.9 hPa | 0 mm | - | - | - |
| 1777733503 | 8.33° C | 85% | 1019.8 hPa | 0 mm | - | - | - |
| 1777733203 | 8.33° C | 87% | 1019.8 hPa | 0 mm | - | - | - |
| 1777732903 | 8.33° C | 85% | 1019.7 hPa | 0 mm | - | - | - |
| 1777732603 | 8.33° C | 86% | 1019.7 hPa | 0.25 mm | - | - | - |
| 1777732303 | 8.33° C | 86% | 1019.7 hPa | 0.25 mm | - | - | - |
| 1777732003 | 8.33° C | 86% | 1019.7 hPa | 0.25 mm | - | - | - |
| 1777731703 | 8.33° C | 86% | 1019.8 hPa | 0.25 mm | - | - | - |
| 1777731403 | 8.33° C | 84% | 1019.9 hPa | 0.25 mm | - | - | - |
| 1777731103 | 8.33° C | 84% | 1019.8 hPa | 0.51 mm | - | - | - |
| 1777730803 | 8.33° C | 85% | 1019.6 hPa | 0.51 mm | - | - | - |
| 1777730503 | 8.33° C | 83% | 1019.5 hPa | 0.51 mm | - | - | - |
| 1777730203 | 8.33° C | 84% | 1019.4 hPa | 0.51 mm | - | - | - |
| 1777729903 | 8.33° C | 85% | 1019.4 hPa | 0.51 mm | - | - | - |
| 1777729603 | 8.33° C | 85% | 1019.3 hPa | 0.51 mm | - | - | - |
| 1777729303 | 8.33° C | 86% | 1019.2 hPa | 0.51 mm | - | - | - |
| 1777729003 | 8.33° C | 87% | 1019.3 hPa | 0.25 mm | - | - | - |
| 1777728703 | 7.78° C | 86% | 1019.3 hPa | 0.25 mm | - | - | - |
| 1777728403 | 7.78° C | 87% | 1019.2 hPa | 0.25 mm | - | - | - |
* Rain latest hour (hover to see other rain measurements)
** Current wind speed in m/s (hover to see current wind gust speed)